Change the Weather History Date:

Wednesday, October 31, 2012

  Actual Average Record
Temperature  
Mean Temperature 47 °F -  
Max Temperature 53 °F - - ()
Min Temperature 41 °F - - ()
Degree Days  
Heating Degree Days 18    
Moisture  
Dew Point 45 °F    
Average Humidity 83    
Maximum Humidity 93    
Minimum Humidity 64    
Precipitation  
Precipitation 0.04 in - - ()
Sea Level Pressure  
Sea Level Pressure 29.15 in    
Wind  
Wind Speed 12 mph ()    
Max Wind Speed 22 mph    
Max Gust Speed 33 mph    
Visibility 6.6 miles    
Events Rain    
T = Trace of Precipitation, MM = Missing Value Source: Averaged Metar Reports

Daily Weather History Graph

Daily Weather History Graph

Search for Another Location

Airport or City:

Trip Planner

Search our weather history database for the weather conditions in past years. The results will help you decide how hot, cold, wet, or windy it might be!

Date:

Astronomy

Oct. 31, 2012 Rise Set
Actual Time 6:54 AM GMT 4:37 PM GMT
Civil Twilight 6:19 AM GMT 5:12 PM GMT
Nautical Twilight 5:40 AM GMT 5:51 PM GMT
Astronomical Twilight 5:02 AM GMT 6:30 PM GMT
Moon 5:25 PM GMT (10/31) 8:34 AM GMT (10/31)
Length of Visible Light 10h 52m
Length of Day
9h 42m
Full, 97% of the Moon is Illuminated
Oct 31
Full
Nov 7
Last Quarter
Nov 13
New
Nov 20
First Quarter
Nov 28
Full

Hourly Weather History & Observations

Time (GMT) Temp. Windchill Dew Point Humidity Pressure Visibility Wind Dir Wind Speed Gust Speed Precip Events Conditions
2:50 AM 41 °F - 37 °F 79% 29.43 in 37 mi South 6.9 mph - -   Scattered Clouds
5:50 AM 43 °F - 38 °F 74% 29.34 in 37 mi SSE 8.1 mph - -   Scattered Clouds
6:50 AM 41.0 °F 38.0 °F 39.2 °F 93% 29.33 in 6.2 mi South 4.6 mph - N/A   Scattered Clouds
7:20 AM 44.6 °F 40.7 °F 41.0 °F 87% 29.33 in 6.2 mi SSW 6.9 mph - N/A   Drizzle
7:50 AM 44.6 °F 40.7 °F 42.8 °F 93% 29.30 in 6.2 mi South 6.9 mph - N/A   Partly Cloudy
8:20 AM 44.6 °F 40.7 °F 42.8 °F 93% 29.30 in 6.2 mi SSE 6.9 mph - N/A   Partly Cloudy
8:50 AM 47 °F - 44 °F 83% 29.30 in 22 mi South 9.2 mph - -   Mostly Cloudy
8:50 AM 46.4 °F 41.9 °F 44.6 °F 93% 29.30 in 6.2 mi South 9.2 mph - N/A   Partly Cloudy
9:20 AM 46.4 °F 41.5 °F 44.6 °F 93% 29.27 in 6.2 mi South 10.4 mph - N/A   Partly Cloudy
9:50 AM 50.0 °F - 44.6 °F 82% 29.27 in 6.2 mi South 15.0 mph - N/A   Partly Cloudy
10:20 AM 51.8 °F - 46.4 °F 82% 29.27 in 6.2 mi South 17.3 mph - N/A   Scattered Clouds
10:50 AM 50.0 °F - 44.6 °F 82% 29.24 in 6.2 mi SSW 17.3 mph - N/A Rain Rain Showers
11:20 AM 51.8 °F - 48.2 °F 88% 29.24 in 6.2 mi SSW 12.7 mph - N/A   Scattered Clouds
11:50 AM 53 °F - 44 °F 64% 29.22 in 22 mi SSW 21.9 mph - -   Scattered Clouds
11:50 AM 53.6 °F - 44.6 °F 72% 29.21 in 6.2 mi SSW 21.9 mph - N/A   Mostly Cloudy
12:20 PM 51.8 °F - 44.6 °F 76% 29.21 in 6.2 mi SSW 20.7 mph 33.4 mph N/A   Mostly Cloudy
12:50 PM 51.8 °F - 46.4 °F 82% 29.18 in 6.2 mi South 16.1 mph 27.6 mph N/A Rain Light Rain Showers
1:20 PM 51.8 °F - 46.4 °F 82% 29.18 in 6.2 mi South 18.4 mph - N/A Rain Light Rain Showers
1:50 PM 51.8 °F - 46.4 °F 82% 29.15 in 6.2 mi South 17.3 mph - N/A Rain Light Rain Showers
2:20 PM - - - N/A% 29.15 in 6.2 mi South 19.6 mph - N/A Rain Light Rain Showers
2:50 PM 51 °F - 47 °F 81% 29.14 in 14 mi South 16.1 mph - -   Scattered Clouds
2:50 PM 50.0 °F - 46.4 °F 87% 29.15 in 6.2 mi South 18.4 mph 31.1 mph N/A Rain Light Rain Showers
3:20 PM - - - N/A% 29.12 in 6.2 mi South 15.0 mph - N/A Rain Light Rain Showers
3:50 PM 50.0 °F - 46.4 °F 87% 29.09 in 6.2 mi South 15.0 mph - N/A Rain Light Rain Showers
4:20 PM 51.8 °F - 46.4 °F 82% 29.09 in 6.2 mi South 15.0 mph - N/A   Mostly Cloudy
4:50 PM 51.8 °F - 44.6 °F 76% 29.06 in 6.2 mi South 16.1 mph 28.8 mph N/A   Scattered Clouds
5:20 PM 50.0 °F - 46.4 °F 87% 29.06 in 6.2 mi South 18.4 mph - N/A Rain Light Rain
5:50 PM 50 °F - 47 °F 85% 29.07 in 7 mi South 15.0 mph - -   Mostly Cloudy
5:50 PM 50.0 °F - 46.4 °F 87% 29.06 in 6.2 mi South 13.8 mph - N/A Rain Rain
6:20 PM 50.0 °F - 46.4 °F 87% 29.06 in 6.2 mi South 13.8 mph - N/A Rain Rain
6:50 PM 50.0 °F - 46.4 °F 87% 29.03 in 4.3 mi South 15.0 mph - N/A Rain Heavy Rain
7:20 PM 50.0 °F - 46.4 °F 87% 29.03 in 6.2 mi South 15.0 mph 26.5 mph N/A   Mostly Cloudy
7:50 PM 50.0 °F - 46.4 °F 87% 29.00 in 6.2 mi South 13.8 mph - N/A   Scattered Clouds
8:20 PM 51.8 °F - 46.4 °F 82% 29.00 in 6.2 mi South 18.4 mph 29.9 mph N/A Rain Light Rain
8:50 PM 52 °F - 46 °F 74% 28.98 in 19 mi South 18.4 mph - -   Partly Cloudy
8:50 PM 51.8 °F - 46.4 °F 82% 28.97 in 6.2 mi South 16.1 mph - N/A   Mostly Cloudy
9:20 PM 51.8 °F - 46.4 °F 82% 28.94 in 6.2 mi South 18.4 mph 29.9 mph N/A   Mostly Cloudy
9:50 PM 51.8 °F - 46.4 °F 82% 28.94 in 6.2 mi South 18.4 mph - N/A   Mostly Cloudy
11:50 PM 46 °F - 43 °F 87% 28.89 in 1 mi SSW 19.6 mph - -   Scattered Clouds